"Pseudo-MPEC" for P111rkL

Created 2020 Jul 2 22:07:04 UT using Find_Orb

Click here for an explanation of pseudo-MPECs

 
 Astrometry: 
     P111rkL  C2020 06 15[=kk^a.lRmAstrometryi4QXR(@v3kl/#A_XU5mr'^redacted;WF51
     P111rkL  C2020 06 15Bm#O:l=E$oMxF;C8JCrclick'sfP(!C!here\\2YOibC5%i9tp7tF51
     P111rkL  C2020 06 1515gfor52_Q2\[;^%pta\SjKo3:tVSI'DexplanationC83dNFJDwF51

Station data:
(F51) Pan-STARRS 1, Haleakala  (N20.707235 W156.255910)  US/Hawaii.
   Observers N. Primak, A. Schultz, S. Watters, J. Thiel, T. Goggia. Measurer
   PS1 Science Consortium. 1.8-m Ritchey-Chrétien + CCD.

Orbital elements:  P111rkL
   Perihelion 2020 Oct 11.337784 +/- 66.3 TT =  8:06:24 (JD 2459133.837784)
Epoch 2020 Jun 15.0 TT = JDT 2459015.5   Earth MOID: 0.0624   Ve: 0.0838
M 236.55644552 +/- 120              (J2000 ecliptic)          AutoNEOCP
n   1.04314573 +/- 0.702            Peri.  138.12797 +/- 80
a   0.96288124 +/- 0.432            Node   261.73818 +/- 35
e   0.1956204 +/- 0.267             Incl.   21.98869 +/- 44
P   0.94/345.10d           H 24.0   G  0.15   U 12.5  SR
q 0.77452202 +/- 0.422    Q 1.15124045 +/- 15
From 3 observations 2020 June 15 (47.7 min); mean residual 0".25
Residuals in arcseconds: 
200615 F51  .12+  .30-    200615 F51  .18-  .46+    200615 F51  .06+  .15-    

Ephemerides (geocentric):
Date (UTC) HH   RA              Dec         delta   r     elong  mag " sig PA
---- -- -- --  -------------   -----------  ------ ------ -----  --- ---- ---
2020 07 02 22  14 01 04.514   +25 40 18.76  .15610 1.0422  95.1 22.7  34d  28
2020 07 02 23  14 01 04.224   +25 43 56.64  .15629 1.0421  95.0 22.7  34d  28
2020 07 03 00  14 01 03.937   +25 47 33.96  .15648 1.0420  95.0 22.7  34d  27
2020 07 03 01  14 01 03.654   +25 51 10.74  .15667 1.0419  94.9 22.7  34d  27
2020 07 03 02  14 01 03.373   +25 54 46.98  .15686 1.0418  94.9 22.7  34d  27
2020 07 03 03  14 01 03.096   +25 58 22.68  .15705 1.0416  94.8 22.7  34d  27
2020 07 03 04  14 01 02.822   +26 01 57.83  .15724 1.0415  94.7 22.7  34d  27
2020 07 03 05  14 01 02.552   +26 05 32.45  .15743 1.0414  94.7 22.7  34d  27
2020 07 03 06  14 01 02.284   +26 09 06.53  .15762 1.0413  94.6 22.7  34d  27
2020 07 03 07  14 01 02.019   +26 12 40.08  .15781 1.0412  94.5 22.8  34d  27
2020 07 03 08  14 01 01.758   +26 16 13.09  .15800 1.0410  94.5 22.8  34d  27
2020 07 03 09  14 01 01.499   +26 19 45.57  .15819 1.0409  94.4 22.8  34d  27
2020 07 03 10  14 01 01.244   +26 23 17.52  .15838 1.0408  94.4 22.8  34d  27
2020 07 03 11  14 01 00.992   +26 26 48.95  .15857 1.0407  94.3 22.8  35d  27
2020 07 03 12  14 01 00.742   +26 30 19.84  .15876 1.0406  94.2 22.8  35d  27
2020 07 03 13  14 01 00.496   +26 33 50.22  .15895 1.0404  94.2 22.8  35d  27
2020 07 03 14  14 01 00.253   +26 37 20.07  .15914 1.0403  94.1 22.8  35d  27
2020 07 03 15  14 01 00.012   +26 40 49.40  .15934 1.0402  94.1 22.8  35d  27
2020 07 03 16  14 00 59.774   +26 44 18.21  .15953 1.0401  94.0 22.8  35d  27
2020 07 03 17  14 00 59.540   +26 47 46.50  .15972 1.0400  93.9 22.8  35d  27
2020 07 03 18  14 00 59.308   +26 51 14.28  .15991 1.0398  93.9 22.8  35d  27
2020 07 03 19  14 00 59.079   +26 54 41.54  .16010 1.0397  93.8 22.8  35d  27
2020 07 03 20  14 00 58.853   +26 58 08.29  .16029 1.0396  93.8 22.8  35d  27
2020 07 03 21  14 00 58.630   +27 01 34.53  .16048 1.0395  93.7 22.8  35d  27
2020 07 03 22  14 00 58.409   +27 05 00.27  .16068 1.0393  93.6 22.8  35d  27
2020 07 03 23  14 00 58.192   +27 08 25.49  .16087 1.0392  93.6 22.8  35d  27
2020 07 04 00  14 00 57.977   +27 11 50.21  .16106 1.0391  93.5 22.8  35d  27
2020 07 04 01  14 00 57.764   +27 15 14.42  .16125 1.0390  93.5 22.8  35d  27
2020 07 04 02  14 00 57.555   +27 18 38.14  .16144 1.0389  93.4 22.8  35d  27
2020 07 04 03  14 00 57.348   +27 22 01.35  .16163 1.0387  93.3 22.8  35d  27
2020 07 04 04  14 00 57.144   +27 25 24.06  .16183 1.0386  93.3 22.8  35d  27
2020 07 04 05  14 00 56.942   +27 28 46.28  .16202 1.0385  93.2 22.8  35d  27
2020 07 04 06  14 00 56.743   +27 32 08.00  .16221 1.0384  93.2 22.8  35d  27
2020 07 04 07  14 00 56.547   +27 35 29.23  .16240 1.0383  93.1 22.8  35d  27
2020 07 04 08  14 00 56.354   +27 38 49.96  .16260 1.0381  93.1 22.9  35d  27
2020 07 04 09  14 00 56.162   +27 42 10.21  .16279 1.0380  93.0 22.9  35d  27
2020 07 04 10  14 00 55.974   +27 45 29.96  .16298 1.0379  92.9 22.9  35d  27
2020 07 04 11  14 00 55.788   +27 48 49.23  .16317 1.0378  92.9 22.9  35d  27
2020 07 04 12  14 00 55.604   +27 52 08.01  .16337 1.0377  92.8 22.9  35d  27
2020 07 04 13  14 00 55.423   +27 55 26.31  .16356 1.0375  92.8 22.9  35d  27
2020 07 04 14  14 00 55.245   +27 58 44.13  .16375 1.0374  92.7 22.9  35d  27
2020 07 04 15  14 00 55.069   +28 02 01.46  .16395 1.0373  92.7 22.9  35d  27
2020 07 04 16  14 00 54.895   +28 05 18.32  .16414 1.0372  92.6 22.9  35d  27
2020 07 04 17  14 00 54.724   +28 08 34.70  .16433 1.0370  92.5 22.9  35d  27
2020 07 04 18  14 00 54.555   +28 11 50.60  .16453 1.0369  92.5 22.9  35d  27
2020 07 04 19  14 00 54.389   +28 15 06.03  .16472 1.0368  92.4 22.9  35d  27
2020 07 04 20  14 00 54.225   +28 18 20.99  .16491 1.0367  92.4 22.9  36d  27
2020 07 04 21  14 00 54.063   +28 21 35.47  .16511 1.0366  92.3 22.9  36d  27